Location: Street
(51.1247°N, 2.7429°W)
Time: 16:16:16
(UTC+00:00)

SR - All Passes

Search period start: 26 November 2020 00:00
Search period end: 06 December 2020 00:00
Orbit: 579 x 876 km, 66.7° (Epoch: 25 November)

Date Brightness Start Highest point End Pass type
(mag) Time Alt. Az. Time Alt. Az. Time Alt. Az.
26 Nov - 00:41:04 10° NNW 00:44:02 16° NNE 00:47:09 10° NE night (unlit)
26 Nov - 02:22:48 10° NNW 02:27:31 36° NE 02:32:35 10° ESE visible
26 Nov - 04:04:44 10° NW 04:09:51 57° WSW 04:15:22 10° SSE visible
26 Nov - 05:49:47 10° W 05:51:00 11° WSW 05:52:14 10° WSW visible
26 Nov - 18:40:41 10° S 18:44:27 29° ESE 18:48:27 10° NE visible
26 Nov - 20:22:00 10° WSW 20:26:16 47° NW 20:30:54 10° NNE visible
26 Nov - 22:06:31 10° WNW 22:09:32 17° NNW 22:12:43 10° NNE night (unlit)
26 Nov - 23:51:08 10° NNW 23:53:37 14° N 23:56:11 10° NE night (unlit)
27 Nov - 01:33:12 10° NNW 01:37:25 25° NNE 01:41:53 10° E night (unlit)
27 Nov - 03:14:56 10° NW 03:20:09 85° NE 03:25:47 10° SE visible
27 Nov - 04:57:53 10° WNW 05:01:44 20° WSW 05:05:43 10° SSW visible
27 Nov - 17:52:34 10° SE 17:55:08 15° ESE 17:57:47 10° ENE visible
27 Nov - 19:32:02 10° SW 19:36:25 83° NW 19:41:12 10° NE visible
27 Nov - 21:15:40 10° W 21:19:14 22° NNW 21:23:02 10° NNE night (unlit)
27 Nov - 23:00:48 10° NNW 23:03:08 13° N 23:05:34 10° NNE night (unlit)
28 Nov - 00:43:35 10° NNW 00:47:10 19° NNE 00:50:56 10° ENE night (unlit)
28 Nov - 02:25:15 10° NNW 02:30:19 53° NE 02:35:46 10° ESE night (unlit)
28 Nov - 04:07:30 10° NW 04:12:17 35° WSW 04:17:21 10° S visible
28 Nov - 18:42:31 10° SSW 18:46:46 53° ESE 18:51:20 10° NE visible
28 Nov - 20:25:02 10° W 20:29:04 31° NW 20:33:24 10° NNE visible
28 Nov - 22:10:04 10° NW 22:12:41 14° N 22:15:25 10° NNE night (unlit)
28 Nov - 23:53:51 10° NNW 23:56:48 15° NNE 23:59:53 10° NE night (unlit)
29 Nov - 01:35:37 10° NNW 01:40:19 35° NE 01:45:22 10° ESE night (unlit)
29 Nov - 03:17:31 10° NW 03:22:42 61° WSW 03:28:16 10° SSE night (unlit)
29 Nov - 05:02:06 10° W 05:03:53 12° WSW 05:05:43 10° WSW night (unlit)
29 Nov - 17:53:35 10° S 17:57:17 28° ESE 18:01:13 10° NE visible
29 Nov - 19:34:45 10° WSW 19:39:03 50° NW 19:43:45 10° NNE visible
29 Nov - 21:19:10 10° WNW 21:22:17 17° NNW 21:25:35 10° NNE visible
29 Nov - 23:03:52 10° NNW 23:06:22 14° N 23:08:57 10° NE night (unlit)
30 Nov - 00:46:01 10° NNW 00:50:11 25° NNE 00:54:38 10° E night (unlit)
30 Nov - 02:27:44 10° NW 02:32:59 82° NE 02:38:38 10° SE night (unlit)
30 Nov - 04:10:36 10° WNW 04:14:36 22° WSW 04:18:46 10° SSW night (unlit)
30 Nov - 17:05:36 10° SE 17:07:59 14° ESE 17:10:28 10° ENE visible
30 Nov - 18:44:49 10° SW 18:49:14 88° NW 18:54:01 10° NE visible
30 Nov - 20:28:21 10° W 20:32:00 23° NNW 20:35:53 10° NNE visible
30 Nov - 22:13:29 10° NNW 22:15:53 13° N 22:18:23 10° NNE night (unlit)
30 Nov - 23:56:22 10° NNW 23:59:56 19° NNE 00:03:41 10° ENE night (unlit)
01 Dec - 01:38:03 10° NNW 01:43:07 51° NE 01:48:35 10° ESE night (unlit)
01 Dec - 03:20:16 10° NW 03:25:08 37° WSW 03:30:18 10° S night (unlit)
01 Dec - 17:55:21 10° SSW 17:59:35 50° ESE 18:04:09 10° NE visible
01 Dec - 19:37:45 10° WSW 19:41:51 33° NW 19:46:15 10° NNE visible
01 Dec - 21:22:43 10° NW 21:25:26 15° NNW 21:28:15 10° NNE visible
01 Dec - 23:06:36 10° NNW 23:09:33 15° NNE 23:12:38 10° NE night (unlit)
02 Dec - 00:48:26 10° NNW 00:53:07 34° NE 00:58:08 10° ESE night (unlit)
02 Dec - 02:30:19 10° NW 02:35:32 64° WSW 02:41:09 10° SSE night (unlit)
02 Dec - 04:14:33 10° W 04:16:46 12° WSW 04:19:02 10° SW night (unlit)
02 Dec - 17:06:29 10° S 17:10:08 26° ESE 17:14:00 10° ENE visible
02 Dec - 18:47:29 10° WSW 18:51:51 53° NW 18:56:35 10° NNE visible
02 Dec - 20:31:50 10° WNW 20:35:03 18° NNW 20:38:26 10° NNE visible
02 Dec - 22:16:35 10° NNW 22:19:06 14° N 22:21:44 10° NE night (unlit)
02 Dec - 23:58:49 10° NNW 00:02:59 24° NNE 00:07:23 10° E night (unlit)
03 Dec - 01:40:32 10° NW 01:45:48 78° NE 01:51:29 10° SE night (unlit)
03 Dec - 03:23:19 10° WNW 03:27:27 23° WSW 03:31:47 10° SSW night (unlit)
03 Dec - 16:18:39 10° SE 16:20:50 14° ESE 16:23:07 10° ENE daylight
03 Dec - 17:57:36 10° SW 18:02:02 88° SE 18:06:51 10° NE visible
03 Dec - 19:41:02 10° W 19:44:46 24° NNW 19:48:44 10° NNE visible
03 Dec - 21:26:09 10° NW 21:28:38 14° N 21:31:12 10° NNE visible
03 Dec - 23:09:09 10° NNW 23:12:42 18° NNE 23:16:25 10° ENE night (unlit)
04 Dec - 00:50:52 10° NNW 00:55:55 49° NE 01:01:22 10° ESE night (unlit)
04 Dec - 02:33:02 10° NW 02:37:59 39° WSW 02:43:14 10° S night (unlit)
04 Dec - 17:08:11 10° SSW 17:12:24 47° ESE 17:16:58 10° NE visible
04 Dec - 18:50:28 10° WSW 18:54:37 34° NW 18:59:06 10° NNE visible
04 Dec - 20:35:23 10° NW 20:38:11 15° NNW 20:41:06 10° NNE visible
04 Dec - 22:19:21 10° NNW 22:22:19 15° NNE 22:25:22 10° NE night (unlit)
05 Dec - 00:01:14 10° NNW 00:05:54 33° NE 00:10:54 10° E night (unlit)
05 Dec - 01:43:05 10° NW 01:48:22 67° WSW 01:54:01 10° SSE night (unlit)
05 Dec - 03:27:05 10° WNW 03:29:38 13° WSW 03:32:15 10° SW night (unlit)
05 Dec - 16:19:22 10° SSE 16:22:58 25° ESE 16:26:45 10° ENE daylight
05 Dec - 18:00:14 10° SW 18:04:38 56° NW 18:09:25 10° NNE visible
05 Dec - 19:44:29 10° WNW 19:47:48 19° NNW 19:51:17 10° NNE visible
05 Dec - 21:29:17 10° NNW 21:31:51 14° N 21:34:30 10° NE visible
05 Dec - 23:11:37 10° NNW 23:15:45 24° NNE 23:20:08 10° E night (unlit)
